SWR2CL LSZH-LIRF

Flight info

Callsign SWR2CL
Flight time 1h 5m
Altitude 37000
Route DEGE1X DEGES Y170 ARGAX DCT RESIA DCT BENUS DCT BAGNO DCT GAVRA DCT RITEB RITE3A
Aircraft A320/M-SDE2E3FGHIJ1RWXY/LB1

Departure

Time 2026-05-05 19:04
Airport Zürich Airport (LSZH)

Arrival

Time 2026-05-05 20:10
Airport Rome–Fiumicino Leonardo da Vinci International Airport (LIRF)
Time Latitude Longitude Altitude Speed Heading
2026-05-05 18:00 47.45350 8.55755 1407 ft 0 kts
2026-05-05 18:51 47.45332 8.55753 1413 ft 4 kts
2026-05-05 18:52 47.45311 8.55750 1410 ft 4 kts
2026-05-05 18:52 47.45293 8.55750 1409 ft 4 kts 353°
2026-05-05 18:52 47.45269 8.55760 1407 ft 4 kts 313°
2026-05-05 18:52 47.45260 8.55793 1407 ft 4 kts 276°
2026-05-05 18:53 47.45259 8.55808 1407 ft 0 kts 276°
2026-05-05 18:55 47.45260 8.55802 1411 ft 4 kts 276°
2026-05-05 18:55 47.45264 8.55725 1407 ft 8 kts 275°
2026-05-05 18:55 47.45271 8.55627 1406 ft 9 kts 276°
2026-05-05 18:55 47.45310 8.55551 1406 ft 12 kts 332°
2026-05-05 18:56 47.45381 8.55503 1410 ft 11 kts 335°
2026-05-05 18:56 47.45454 8.55454 1405 ft 12 kts 334°
2026-05-05 18:56 47.45521 8.55461 1412 ft 9 kts 51°
2026-05-05 18:56 47.45525 8.55536 1411 ft 10 kts 95°
2026-05-05 18:57 47.45518 8.55639 1410 ft 9 kts 96°
2026-05-05 18:57 47.45512 8.55722 1407 ft 9 kts 96°
2026-05-05 18:57 47.45502 8.55859 1414 ft 15 kts 96°
2026-05-05 18:57 47.45491 8.56020 1410 ft 16 kts 96°
2026-05-05 18:58 47.45480 8.56177 1407 ft 14 kts 93°
2026-05-05 18:58 47.45535 8.56249 1412 ft 10 kts
2026-05-05 18:58 47.45596 8.56273 1414 ft 8 kts 41°
2026-05-05 18:58 47.45603 8.56375 1418 ft 12 kts 96°
2026-05-05 18:59 47.45595 8.56498 1415 ft 12 kts 96°
2026-05-05 18:59 47.45586 8.56607 1417 ft 9 kts 97°
2026-05-05 18:59 47.45580 8.56680 1418 ft 5 kts 97°
2026-05-05 18:59 47.45576 8.56738 1419 ft 9 kts 95°
2026-05-05 19:00 47.45571 8.56812 1420 ft 6 kts 95°
2026-05-05 19:00 47.45567 8.56884 1420 ft 7 kts 95°
2026-05-05 19:00 47.45564 8.56927 1420 ft 0 kts 95°
2026-05-05 19:01 47.45571 8.56986 1421 ft 7 kts 61°
2026-05-05 19:01 47.45624 8.57017 1424 ft 8 kts 356°
2026-05-05 19:01 47.45663 8.56974 1424 ft 7 kts 295°
2026-05-05 19:01 47.45666 8.56942 1424 ft 0 kts 277°
2026-05-05 19:02 47.45667 8.56938 1424 ft 0 kts 277°
2026-05-05 19:03 47.45667 8.56937 1424 ft 2 kts 277°
2026-05-05 19:03 47.45685 8.56660 1417 ft 64 kts 275°
2026-05-05 19:04 47.45749 8.55681 1409 ft 126 kts 276°
2026-05-05 19:04 47.45849 8.54152 1477 ft 162 kts 272°
2026-05-05 19:04 47.45978 8.52492 2049 ft 163 kts 274°
2026-05-05 19:04 47.46106 8.50749 2448 ft 182 kts 275°
2026-05-05 19:05 47.46227 8.48784 2750 ft 203 kts 268°
2026-05-05 19:05 47.45771 8.46767 3260 ft 211 kts 239°
2026-05-05 19:05 47.45041 8.44899 4113 ft 210 kts 241°
2026-05-05 19:05 47.44326 8.43001 4775 ft 212 kts 242°
2026-05-05 19:06 47.43624 8.41083 5189 ft 211 kts 243°
2026-05-05 19:06 47.42940 8.39174 6069 ft 210 kts 241°
2026-05-05 19:06 47.41981 8.37563 6824 ft 214 kts 214°
2026-05-05 19:06 47.40532 8.36833 7320 ft 235 kts 186°
2026-05-05 19:07 47.38853 8.37410 7617 ft 269 kts 152°
2026-05-05 19:07 47.37564 8.39534 8175 ft 291 kts 117°
2026-05-05 19:07 47.37132 8.42496 8976 ft 301 kts 95°
2026-05-05 19:07 47.37185 8.45610 9853 ft 305 kts 87°
2026-05-05 19:08 47.37437 8.48780 10316 ft 322 kts 84°
2026-05-05 19:08 47.37758 8.52161 10538 ft 345 kts 84°
2026-05-05 19:08 47.38077 8.55759 10985 ft 358 kts 85°
2026-05-05 19:08 47.38351 8.59433 11658 ft 363 kts 86°
2026-05-05 19:09 47.38579 8.63171 12347 ft 367 kts 87°
2026-05-05 19:09 47.38776 8.66955 13027 ft 372 kts 87°
2026-05-05 19:09 47.38959 8.70791 13702 ft 377 kts 88°
2026-05-05 19:09 47.39138 8.74668 14314 ft 381 kts 88°
2026-05-05 19:10 47.39321 8.78589 14963 ft 384 kts 88°
2026-05-05 19:10 47.39506 8.82518 15605 ft 386 kts 88°
2026-05-05 19:10 47.39692 8.86421 16235 ft 389 kts 88°
2026-05-05 19:10 47.39882 8.90432 16846 ft 392 kts 88°
2026-05-05 19:11 47.40073 8.94510 17491 ft 394 kts 88°
2026-05-05 19:11 47.40256 8.98504 18092 ft 397 kts 88°
2026-05-05 19:11 47.40445 9.02636 18641 ft 400 kts 88°
2026-05-05 19:11 47.40627 9.06686 19159 ft 403 kts 89°
2026-05-05 19:12 47.40458 9.10681 19654 ft 401 kts 104°
2026-05-05 19:12 47.39540 9.14599 20183 ft 399 kts 121°
2026-05-05 19:12 47.37988 9.17894 20693 ft 395 kts 137°
2026-05-05 19:12 47.35927 9.20415 21218 ft 392 kts 150°
2026-05-05 19:13 47.33647 9.22655 21751 ft 395 kts 150°
2026-05-05 19:13 47.31352 9.24889 22280 ft 397 kts 150°
2026-05-05 19:13 47.29039 9.27125 22783 ft 399 kts 151°
2026-05-05 19:13 47.26767 9.29313 23295 ft 399 kts 151°
2026-05-05 19:14 47.24441 9.31559 23743 ft 402 kts 151°
2026-05-05 19:14 47.22096 9.33821 24086 ft 405 kts 151°
2026-05-05 19:14 47.19726 9.36109 24457 ft 408 kts 152°
2026-05-05 19:14 47.17344 9.38409 24815 ft 411 kts 152°
2026-05-05 19:15 47.14950 9.40715 25172 ft 413 kts 152°
2026-05-05 19:15 47.12546 9.43028 25528 ft 415 kts 152°
2026-05-05 19:15 47.10128 9.45353 25859 ft 416 kts 152°
2026-05-05 19:15 47.09194 9.46200 26105 ft 408 kts 156°
2026-05-05 19:16 47.06725 9.48324 26301 ft 416 kts 154°
2026-05-05 19:16 47.04272 9.50633 26552 ft 421 kts 152°
2026-05-05 19:16 47.01835 9.53047 26860 ft 424 kts 152°
2026-05-05 19:16 46.99392 9.55502 27235 ft 426 kts 152°
2026-05-05 19:17 46.96939 9.57946 27574 ft 428 kts 152°
2026-05-05 19:17 46.94454 9.60376 27907 ft 429 kts 153°
2026-05-05 19:17 46.91947 9.62782 28161 ft 432 kts 153°
2026-05-05 19:17 46.89430 9.65175 28519 ft 433 kts 154°
2026-05-05 19:18 46.86892 9.67573 28788 ft 435 kts 154°
2026-05-05 19:18 46.84338 9.69980 29108 ft 437 kts 154°
2026-05-05 19:18 46.81780 9.72390 29426 ft 439 kts 154°
2026-05-05 19:18 46.79208 9.74818 29719 ft 441 kts 154°
2026-05-05 19:19 46.76627 9.77262 29988 ft 443 kts 154°
2026-05-05 19:19 46.74036 9.79716 30216 ft 445 kts 154°
2026-05-05 19:19 46.71440 9.82170 30452 ft 446 kts 154°
2026-05-05 19:19 46.68806 9.84659 30775 ft 445 kts 154°
2026-05-05 19:20 46.66240 9.87081 31096 ft 444 kts 154°
2026-05-05 19:20 46.63647 9.89525 31388 ft 444 kts 154°
2026-05-05 19:20 46.61062 9.91956 31649 ft 443 kts 154°
2026-05-05 19:20 46.58474 9.94386 31935 ft 442 kts 154°
2026-05-05 19:21 46.55887 9.96812 32238 ft 442 kts 154°
2026-05-05 19:21 46.53342 9.99191 32523 ft 441 kts 154°
2026-05-05 19:21 46.50726 10.01626 32849 ft 440 kts 155°
2026-05-05 19:21 46.48149 10.04019 33181 ft 439 kts 156°
2026-05-05 19:22 46.45523 10.06101 33469 ft 435 kts 160°
2026-05-05 19:22 46.42847 10.08140 33786 ft 434 kts 160°
2026-05-05 19:22 46.40181 10.10165 34038 ft 434 kts 160°
2026-05-05 19:22 46.37499 10.12199 34260 ft 434 kts 160°
2026-05-05 19:23 46.34824 10.14226 34456 ft 435 kts 160°
2026-05-05 19:23 46.32134 10.16258 34554 ft 438 kts 160°
2026-05-05 19:23 46.29428 10.18300 34686 ft 440 kts 160°
2026-05-05 19:23 46.26709 10.20353 34804 ft 442 kts 160°
2026-05-05 19:24 46.23979 10.22411 34929 ft 443 kts 160°
2026-05-05 19:24 46.21253 10.24466 35050 ft 444 kts 159°
2026-05-05 19:24 46.18500 10.26545 35176 ft 446 kts 159°
2026-05-05 19:24 46.15752 10.28621 35293 ft 446 kts 159°
2026-05-05 19:25 46.12996 10.30695 35416 ft 446 kts 159°
2026-05-05 19:25 46.10241 10.32761 35538 ft 447 kts 159°
2026-05-05 19:25 46.07486 10.34829 35662 ft 447 kts 159°
2026-05-05 19:25 46.04724 10.36899 35792 ft 447 kts 159°
2026-05-05 19:26 46.01967 10.38963 35935 ft 447 kts 159°
2026-05-05 19:26 45.99205 10.41028 36077 ft 448 kts 159°
2026-05-05 19:26 45.96446 10.43092 36203 ft 447 kts 159°
2026-05-05 19:26 45.93684 10.45158 36327 ft 446 kts 159°
2026-05-05 19:27 45.90931 10.47210 36452 ft 446 kts 159°
2026-05-05 19:27 45.88173 10.49261 36577 ft 446 kts 159°
2026-05-05 19:27 45.85417 10.51310 36698 ft 446 kts 159°
2026-05-05 19:27 45.82666 10.53354 36832 ft 445 kts 159°
2026-05-05 19:28 45.79921 10.55398 36975 ft 445 kts 159°
2026-05-05 19:28 45.77165 10.57443 36999 ft 447 kts 159°
2026-05-05 19:28 45.71643 10.61527 36998 ft 448 kts 159°
2026-05-05 19:29 45.66087 10.65618 36996 ft 449 kts 159°
2026-05-05 19:29 45.60570 10.69674 36996 ft 449 kts 159°
2026-05-05 19:30 45.55010 10.73757 36997 ft 450 kts 159°
2026-05-05 19:30 45.49445 10.77841 37000 ft 450 kts 159°
2026-05-05 19:31 45.43876 10.81909 37000 ft 450 kts 159°
2026-05-05 19:31 45.38295 10.85984 37000 ft 451 kts 159°
2026-05-05 19:32 45.32714 10.90053 37002 ft 451 kts 159°
2026-05-05 19:32 45.27125 10.94110 36997 ft 452 kts 159°
2026-05-05 19:33 45.21428 10.98234 36944 ft 452 kts 159°
2026-05-05 19:33 45.15917 11.02224 36952 ft 453 kts 159°
2026-05-05 19:34 45.10303 11.06274 36948 ft 453 kts 159°
2026-05-05 19:35 45.01861 11.12344 36960 ft 454 kts 160°
2026-05-05 19:35 44.96228 11.16390 36975 ft 455 kts 160°
2026-05-05 19:36 44.90625 11.20400 36994 ft 455 kts 160°
2026-05-05 19:36 44.84887 11.24078 37004 ft 452 kts 164°
2026-05-05 19:37 44.79065 11.27417 36996 ft 452 kts 165°
2026-05-05 19:37 44.73240 11.30768 36982 ft 453 kts 164°
2026-05-05 19:38 44.67424 11.34216 36973 ft 455 kts 163°
2026-05-05 19:38 44.61597 11.37721 36967 ft 455 kts 163°
2026-05-05 19:39 44.55765 11.41203 36967 ft 456 kts 164°
2026-05-05 19:39 44.50914 11.44070 36976 ft 456 kts 164°
2026-05-05 19:40 44.45071 11.47513 36976 ft 455 kts 164°
2026-05-05 19:40 44.39229 11.50954 36985 ft 456 kts 164°
2026-05-05 19:41 44.33379 11.54391 36998 ft 456 kts 164°
2026-05-05 19:41 44.27537 11.57828 37015 ft 456 kts 164°
2026-05-05 19:42 44.21685 11.61258 37013 ft 456 kts 164°
2026-05-05 19:42 44.15837 11.64668 37002 ft 456 kts 165°
2026-05-05 19:43 44.09973 11.68075 36988 ft 457 kts 165°
2026-05-05 19:43 44.04104 11.71492 36974 ft 457 kts 165°
2026-05-05 19:44 43.98230 11.74911 36972 ft 458 kts 165°
2026-05-05 19:44 43.92375 11.78291 36976 ft 459 kts 165°
2026-05-05 19:45 43.86311 11.80773 36984 ft 445 kts 179°
2026-05-05 19:45 43.80180 11.81968 36991 ft 446 kts 179°
2026-05-05 19:46 43.74077 11.83358 36992 ft 450 kts 175°
2026-05-05 19:46 43.67957 11.85350 37004 ft 453 kts 173°
2026-05-05 19:47 43.61843 11.87490 36698 ft 452 kts 173°
2026-05-05 19:47 43.58791 11.88518 35919 ft 452 kts 174°
2026-05-05 19:47 43.55730 11.89510 35148 ft 452 kts 174°
2026-05-05 19:47 43.52667 11.90477 34389 ft 451 kts 175°
2026-05-05 19:48 43.49610 11.91429 33567 ft 451 kts 175°
2026-05-05 19:48 43.46543 11.92380 32646 ft 452 kts 174°
2026-05-05 19:48 43.43470 11.93338 31691 ft 454 kts 174°
2026-05-05 19:48 43.40384 11.94306 30702 ft 456 kts 173°
2026-05-05 19:49 43.37282 11.95285 29624 ft 459 kts 173°
2026-05-05 19:49 43.34162 11.96274 28487 ft 461 kts 172°
2026-05-05 19:49 43.31059 11.97258 27732 ft 455 kts 172°
2026-05-05 19:49 43.27991 11.98231 27031 ft 450 kts 172°
2026-05-05 19:50 43.24955 11.99192 26326 ft 445 kts 171°
2026-05-05 19:50 43.21956 12.00139 25646 ft 440 kts 171°
2026-05-05 19:50 43.18994 12.01074 24991 ft 435 kts 171°
2026-05-05 19:50 43.16059 12.01996 24356 ft 430 kts 170°
2026-05-05 19:51 43.13155 12.02901 23761 ft 426 kts 170°
2026-05-05 19:51 43.10275 12.03797 23084 ft 422 kts 170°
2026-05-05 19:51 43.07428 12.04686 22412 ft 418 kts 170°
2026-05-05 19:51 43.04608 12.05567 21780 ft 414 kts 170°
2026-05-05 19:52 43.01811 12.06442 21149 ft 410 kts 170°
2026-05-05 19:52 42.99041 12.07305 20530 ft 407 kts 170°
2026-05-05 19:52 42.96294 12.08160 19957 ft 404 kts 170°
2026-05-05 19:52 42.93561 12.09010 19389 ft 401 kts 170°
2026-05-05 19:53 42.90886 12.09841 18854 ft 398 kts 170°
2026-05-05 19:53 42.88197 12.10678 18325 ft 395 kts 171°
2026-05-05 19:53 42.85522 12.11509 17739 ft 393 kts 171°
2026-05-05 19:53 42.82865 12.12331 17180 ft 390 kts 171°
2026-05-05 19:54 42.80232 12.13149 16589 ft 387 kts 171°
2026-05-05 19:54 42.77609 12.13965 16142 ft 385 kts 171°
2026-05-05 19:54 42.74996 12.14775 16014 ft 385 kts 171°
2026-05-05 19:54 42.72385 12.15579 16034 ft 385 kts 171°
2026-05-05 19:55 42.69851 12.16535 15939 ft 373 kts 163°
2026-05-05 19:55 42.67416 12.17465 15810 ft 354 kts 178°
2026-05-05 19:55 42.65009 12.17600 15691 ft 339 kts 183°
2026-05-05 19:55 42.62688 12.17595 15281 ft 331 kts 184°
2026-05-05 19:56 42.60394 12.17563 14755 ft 328 kts 184°
2026-05-05 19:56 42.58122 12.17554 14224 ft 326 kts 183°
2026-05-05 19:56 42.55871 12.17584 13691 ft 323 kts 182°
2026-05-05 19:56 42.53630 12.17645 13124 ft 320 kts 182°
2026-05-05 19:57 42.51411 12.17729 12546 ft 317 kts 181°
2026-05-05 19:57 42.49241 12.17824 12256 ft 301 kts 181°
2026-05-05 19:57 42.47196 12.17918 11855 ft 289 kts 181°
2026-05-05 19:57 42.44940 12.18017 11209 ft 284 kts 181°
2026-05-05 19:58 42.43244 12.18087 10700 ft 280 kts 181°
2026-05-05 19:58 42.41301 12.18167 10127 ft 277 kts 181°
2026-05-05 19:58 42.39387 12.18245 9516 ft 273 kts 181°
2026-05-05 19:58 42.37525 12.18319 8882 ft 270 kts 180°
2026-05-05 19:59 42.35662 12.18394 8245 ft 267 kts 180°
2026-05-05 19:59 42.33813 12.18469 7579 ft 265 kts 180°
2026-05-05 19:59 42.31982 12.18541 6992 ft 262 kts 180°
2026-05-05 19:59 42.30174 12.18613 6381 ft 259 kts 180°
2026-05-05 20:00 42.28379 12.18685 5720 ft 257 kts 180°
2026-05-05 20:00 42.26605 12.18756 5157 ft 252 kts 179°
2026-05-05 20:00 42.24848 12.18826 5011 ft 254 kts 179°
2026-05-05 20:00 42.23086 12.18899 5017 ft 254 kts 179°
2026-05-05 20:01 42.21329 12.18968 5018 ft 252 kts 179°
2026-05-05 20:01 42.19568 12.19035 5021 ft 254 kts 179°
2026-05-05 20:01 42.17797 12.19103 5023 ft 254 kts 179°
2026-05-05 20:01 42.16039 12.19174 4811 ft 252 kts 179°
2026-05-05 20:02 42.14292 12.19235 4408 ft 249 kts 180°
2026-05-05 20:02 42.12628 12.19235 4293 ft 228 kts 181°
2026-05-05 20:02 42.11109 12.19210 4117 ft 210 kts 181°
2026-05-05 20:02 42.09706 12.19182 4035 ft 194 kts 181°
2026-05-05 20:03 42.08437 12.19156 4037 ft 171 kts 181°
2026-05-05 20:03 42.07273 12.19135 4041 ft 170 kts 182°
2026-05-05 20:03 42.06099 12.19113 4034 ft 168 kts 181°
2026-05-05 20:03 42.04930 12.19090 4033 ft 168 kts 181°
2026-05-05 20:04 42.03760 12.19069 4036 ft 169 kts 182°
2026-05-05 20:04 42.02586 12.19050 4032 ft 168 kts 182°
2026-05-05 20:04 42.01422 12.19196 4014 ft 170 kts 170°
2026-05-05 20:04 42.00292 12.19593 3629 ft 170 kts 166°
2026-05-05 20:05 41.99169 12.20042 3203 ft 167 kts 165°
2026-05-05 20:05 41.98090 12.20488 2904 ft 156 kts 164°
2026-05-05 20:05 41.97105 12.20900 2661 ft 141 kts 164°
2026-05-05 20:05 41.96195 12.21281 2471 ft 134 kts 164°
2026-05-05 20:06 41.95317 12.21649 2283 ft 131 kts 164°
2026-05-05 20:06 41.94452 12.22013 2111 ft 130 kts 164°
2026-05-05 20:06 41.93595 12.22373 1931 ft 129 kts 163°
2026-05-05 20:06 41.92741 12.22731 1762 ft 129 kts 163°
2026-05-05 20:07 41.91886 12.23090 1577 ft 129 kts 163°
2026-05-05 20:07 41.91033 12.23448 1409 ft 128 kts 163°
2026-05-05 20:07 41.90170 12.23811 1237 ft 130 kts 162°
2026-05-05 20:07 41.89312 12.24170 1058 ft 128 kts 163°
2026-05-05 20:08 41.88476 12.24521 853 ft 128 kts 161°
2026-05-05 20:08 41.87627 12.24878 681 ft 129 kts 162°
2026-05-05 20:08 41.86763 12.25244 528 ft 128 kts 161°
2026-05-05 20:08 41.85902 12.25611 347 ft 130 kts 161°
2026-05-05 20:09 41.85045 12.25977 239 ft 130 kts 162°
2026-05-05 20:09 41.84187 12.26329 96 ft 128 kts 162°
2026-05-05 20:09 41.83341 12.26677 38 ft 126 kts 162°
2026-05-05 20:09 41.82589 12.26998 16 ft 100 kts 161°
2026-05-05 20:10 41.82233 12.27142 12 ft 26 kts 173°
2026-05-05 20:10 41.82058 12.27135 14 ft 23 kts 187°
2026-05-05 20:10 41.81924 12.27100 15 ft 17 kts 193°
2026-05-05 20:10 41.81833 12.27073 15 ft 7 kts 192°
2026-05-05 20:11 41.81781 12.27057 15 ft 9 kts 192°
2026-05-05 20:11 41.81741 12.27048 15 ft 10 kts 184°
2026-05-05 20:11 41.81667 12.27058 15 ft 12 kts 169°
2026-05-05 20:11 41.81587 12.27090 16 ft 10 kts 161°
2026-05-05 20:12 41.81514 12.27123 15 ft 12 kts 162°
2026-05-05 20:12 41.81401 12.27171 16 ft 22 kts 163°
2026-05-05 20:12 41.81274 12.27223 17 ft 18 kts 163°
2026-05-05 20:12 41.81148 12.27276 15 ft 19 kts 162°
2026-05-05 20:13 41.81017 12.27330 17 ft 20 kts 163°
2026-05-05 20:13 41.80881 12.27347 15 ft 19 kts 190°
2026-05-05 20:13 41.80745 12.27316 15 ft 20 kts 190°
2026-05-05 20:13 41.80648 12.27196 15 ft 20 kts 249°
2026-05-05 20:14 41.80599 12.27021 16 ft 20 kts 250°
2026-05-05 20:14 41.80549 12.26840 15 ft 21 kts 249°
2026-05-05 20:14 41.80500 12.26658 17 ft 22 kts 249°
2026-05-05 20:14 41.80446 12.26465 15 ft 23 kts 249°
2026-05-05 20:15 41.80392 12.26272 15 ft 22 kts 250°
2026-05-05 20:15 41.80320 12.26101 15 ft 22 kts 215°
2026-05-05 20:15 41.80185 12.26018 15 ft 20 kts 205°
2026-05-05 20:15 41.80140 12.25989 15 ft 20 kts 205°
2026-05-05 20:16 41.80003 12.25906 16 ft 22 kts 205°
2026-05-05 20:16 41.79875 12.25822 16 ft 18 kts 214°
2026-05-05 20:16 41.79792 12.25760 15 ft 6 kts 210°
2026-05-05 20:16 41.79793 12.25716 15 ft 5 kts 295°
2026-05-05 20:17 41.79802 12.25690 15 ft 0 kts 296°